N755HF PAKT-PAPG

Flight info

Callsign N755HF
Flight time 0h 30m
Altitude 14000
Route LVD
Aircraft PC12/L-SDFGRWY/S

Departure

Time 2026-05-04 21:45
Airport Ketchikan International Airport (PAKT)

Arrival

Time 2026-05-04 22:15
Airport Petersburg James A Johnson Airport (PAPG)
Time Latitude Longitude Altitude Speed Heading
2026-05-04 21:37 55.35590 -131.70932 38 ft 0 kts 45°
2026-05-04 21:38 55.35590 -131.70933 38 ft 0 kts 45°
2026-05-04 21:40 55.35590 -131.70932 38 ft 0 kts 45°
2026-05-04 21:42 55.35594 -131.70929 38 ft 3 kts 13°
2026-05-04 21:42 55.35598 -131.70943 38 ft 3 kts 248°
2026-05-04 21:43 55.35545 -131.71006 38 ft 15 kts 212°
2026-05-04 21:43 55.35444 -131.70868 38 ft 25 kts 135°
2026-05-04 21:43 55.35303 -131.70628 58 ft 31 kts 136°
2026-05-04 21:43 55.35133 -131.70354 93 ft 36 kts 138°
2026-05-04 21:44 55.34978 -131.70100 97 ft 21 kts 136°
2026-05-04 21:44 55.34852 -131.70096 97 ft 25 kts 243°
2026-05-04 21:44 55.34893 -131.70239 97 ft 2 kts 310°
2026-05-04 21:44 55.34969 -131.70372 97 ft 38 kts 316°
2026-05-04 21:45 55.35280 -131.70899 139 ft 78 kts 317°
2026-05-04 21:45 55.35718 -131.71615 394 ft 92 kts 319°
2026-05-04 21:45 55.36202 -131.72400 779 ft 102 kts 317°
2026-05-04 21:45 55.36773 -131.73318 1309 ft 115 kts 322°
2026-05-04 21:46 55.37442 -131.73995 1889 ft 117 kts 352°
2026-05-04 21:46 55.38231 -131.74634 2308 ft 136 kts 329°
2026-05-04 21:46 55.39041 -131.75618 2841 ft 142 kts 329°
2026-05-04 21:46 55.39870 -131.76614 3411 ft 147 kts 330°
2026-05-04 21:47 55.40718 -131.77622 3975 ft 147 kts 330°
2026-05-04 21:47 55.41569 -131.78635 4554 ft 148 kts 329°
2026-05-04 21:47 55.42407 -131.79632 5115 ft 147 kts 328°
2026-05-04 21:47 55.43260 -131.80650 5677 ft 146 kts 328°
2026-05-04 21:48 55.44099 -131.81651 6229 ft 146 kts 328°
2026-05-04 21:48 55.44936 -131.82651 6753 ft 145 kts 328°
2026-05-04 21:48 55.45764 -131.83640 7256 ft 146 kts 327°
2026-05-04 21:48 55.46607 -131.84647 7768 ft 146 kts 327°
2026-05-04 21:49 55.47450 -131.85656 8288 ft 147 kts 327°
2026-05-04 21:49 55.48301 -131.86674 8804 ft 148 kts 327°
2026-05-04 21:49 55.49153 -131.87693 9328 ft 148 kts 326°
2026-05-04 21:49 55.50011 -131.88720 9844 ft 150 kts 326°
2026-05-04 21:50 55.50874 -131.89755 10319 ft 150 kts 326°
2026-05-04 21:50 55.51718 -131.90768 10779 ft 151 kts 325°
2026-05-04 21:50 55.52591 -131.91815 11244 ft 153 kts 324°
2026-05-04 21:50 55.53475 -131.92876 11708 ft 154 kts 324°
2026-05-04 21:51 55.54368 -131.93950 12173 ft 156 kts 324°
2026-05-04 21:51 55.55272 -131.95035 12648 ft 158 kts 323°
2026-05-04 21:51 55.56183 -131.96132 13131 ft 159 kts 324°
2026-05-04 21:51 55.57101 -131.97236 13626 ft 160 kts 323°
2026-05-04 21:52 55.58034 -131.98360 13989 ft 170 kts 323°
2026-05-04 21:52 55.59089 -131.99632 14003 ft 196 kts 323°
2026-05-04 21:52 55.60271 -132.01050 14009 ft 214 kts 323°
2026-05-04 21:52 55.61536 -132.02574 14005 ft 226 kts 323°
2026-05-04 21:53 55.62863 -132.04177 14006 ft 236 kts 323°
2026-05-04 21:53 55.64238 -132.05841 14010 ft 242 kts 323°
2026-05-04 21:53 55.65641 -132.07536 14007 ft 246 kts 323°
2026-05-04 21:53 55.67063 -132.09256 14002 ft 249 kts 323°
2026-05-04 21:54 55.68501 -132.11001 14007 ft 252 kts 323°
2026-05-04 21:54 55.69929 -132.12735 14009 ft 253 kts 323°
2026-05-04 21:54 55.71381 -132.14497 14006 ft 253 kts 323°
2026-05-04 21:54 55.72836 -132.16265 14008 ft 253 kts 323°
2026-05-04 21:55 55.74292 -132.18036 14007 ft 254 kts 323°
2026-05-04 21:55 55.75752 -132.19812 14013 ft 254 kts 323°
2026-05-04 21:55 55.77209 -132.21588 14013 ft 254 kts 323°
2026-05-04 21:55 55.78656 -132.23352 14012 ft 254 kts 323°
2026-05-04 21:56 55.80111 -132.25128 14012 ft 254 kts 323°
2026-05-04 21:56 55.81565 -132.26906 14014 ft 254 kts 323°
2026-05-04 21:56 55.83019 -132.28683 14015 ft 254 kts 323°
2026-05-04 21:56 55.84476 -132.30466 14015 ft 254 kts 323°
2026-05-04 21:57 55.85929 -132.32247 14013 ft 254 kts 323°
2026-05-04 21:57 55.87383 -132.34031 14018 ft 254 kts 323°
2026-05-04 21:57 55.88839 -132.35818 14016 ft 254 kts 323°
2026-05-04 21:57 55.90294 -132.37606 14014 ft 255 kts 323°
2026-05-04 21:58 55.91733 -132.39375 14016 ft 254 kts 323°
2026-05-04 21:58 55.93189 -132.41167 14016 ft 254 kts 323°
2026-05-04 21:58 55.94643 -132.42957 14015 ft 254 kts 323°
2026-05-04 21:58 55.96095 -132.44749 14016 ft 254 kts 323°
2026-05-04 21:59 55.97548 -132.46542 14015 ft 254 kts 323°
2026-05-04 21:59 55.99001 -132.48338 14017 ft 254 kts 323°
2026-05-04 21:59 56.00452 -132.50132 14022 ft 254 kts 323°
2026-05-04 21:59 56.01905 -132.51931 14023 ft 254 kts 323°
2026-05-04 22:00 56.03356 -132.53727 14021 ft 254 kts 323°
2026-05-04 22:00 56.04805 -132.55524 14022 ft 253 kts 323°
2026-05-04 22:00 56.06255 -132.57324 14022 ft 253 kts 323°
2026-05-04 22:00 56.07704 -132.59125 14023 ft 254 kts 323°
2026-05-04 22:01 56.09147 -132.60920 14023 ft 254 kts 323°
2026-05-04 22:01 56.10604 -132.62734 14024 ft 255 kts 323°
2026-05-04 22:01 56.12060 -132.64547 14024 ft 255 kts 323°
2026-05-04 22:01 56.13515 -132.66361 14027 ft 255 kts 323°
2026-05-04 22:02 56.14970 -132.68178 14025 ft 255 kts 323°
2026-05-04 22:02 56.16422 -132.69993 14029 ft 254 kts 323°
2026-05-04 22:02 56.17872 -132.71806 14028 ft 254 kts 323°
2026-05-04 22:02 56.19326 -132.73626 14025 ft 254 kts 322°
2026-05-04 22:03 56.20775 -132.75442 14028 ft 254 kts 323°
2026-05-04 22:03 56.22224 -132.77260 14028 ft 254 kts 322°
2026-05-04 22:03 56.23654 -132.79054 14031 ft 254 kts 322°
2026-05-04 22:03 56.25121 -132.80899 14031 ft 254 kts 322°
2026-05-04 22:04 56.26551 -132.82697 14034 ft 254 kts 322°
2026-05-04 22:04 56.28003 -132.84526 14032 ft 255 kts 322°
2026-05-04 22:04 56.29415 -132.86305 14029 ft 255 kts 322°
2026-05-04 22:04 56.30872 -132.88142 14027 ft 255 kts 322°
2026-05-04 22:05 56.32314 -132.89961 14030 ft 250 kts 322°
2026-05-04 22:05 56.33731 -132.91749 13928 ft 249 kts 322°
2026-05-04 22:05 56.35152 -132.93548 13681 ft 251 kts 322°
2026-05-04 22:05 56.36585 -132.95363 13421 ft 252 kts 323°
2026-05-04 22:06 56.38024 -132.97188 13160 ft 253 kts 323°
2026-05-04 22:06 56.39466 -132.99016 12906 ft 254 kts 323°
2026-05-04 22:06 56.40909 -133.00848 12643 ft 253 kts 323°
2026-05-04 22:06 56.42348 -133.02678 12397 ft 252 kts 323°
2026-05-04 22:07 56.43778 -133.04496 12145 ft 250 kts 323°
2026-05-04 22:07 56.45198 -133.06301 11898 ft 248 kts 323°
2026-05-04 22:07 56.46752 -133.07607 11638 ft 249 kts 345°
2026-05-04 22:07 56.48487 -133.07641 11383 ft 251 kts
2026-05-04 22:08 56.50188 -133.06974 11147 ft 250 kts 11°
2026-05-04 22:08 56.51770 -133.06291 10917 ft 250 kts 12°
2026-05-04 22:08 56.53416 -133.05602 10686 ft 248 kts 11°
2026-05-04 22:08 56.55091 -133.04920 10460 ft 247 kts 11°
2026-05-04 22:09 56.56758 -133.04242 10216 ft 244 kts 11°
2026-05-04 22:09 56.58403 -133.03569 9986 ft 242 kts 11°
2026-05-04 22:09 56.60035 -133.02899 9720 ft 239 kts 11°
2026-05-04 22:09 56.61643 -133.02240 9454 ft 236 kts 11°
2026-05-04 22:10 56.63249 -133.01583 9113 ft 238 kts 12°
2026-05-04 22:10 56.64864 -133.00919 8655 ft 238 kts 12°
2026-05-04 22:10 56.66474 -133.00257 8196 ft 236 kts 12°
2026-05-04 22:10 56.68097 -132.99646 7402 ft 243 kts 14°
2026-05-04 22:11 56.69675 -132.98526 6729 ft 245 kts 24°
2026-05-04 22:11 56.71185 -132.97187 6014 ft 243 kts 23°
2026-05-04 22:11 56.72686 -132.96127 5701 ft 219 kts 20°
2026-05-04 22:11 56.74087 -132.95450 5288 ft 204 kts 358°
2026-05-04 22:12 56.75314 -132.96563 4817 ft 201 kts 311°
2026-05-04 22:12 56.75953 -132.98747 4177 ft 188 kts 298°
2026-05-04 22:12 56.76519 -133.00856 3519 ft 181 kts 294°
2026-05-04 22:12 56.76833 -133.02999 3089 ft 168 kts 283°
2026-05-04 22:13 56.77250 -133.04864 2827 ft 152 kts 310°
2026-05-04 22:13 56.78062 -133.05840 2669 ft 135 kts 354°
2026-05-04 22:13 56.78840 -133.05256 2625 ft 121 kts 53°
2026-05-04 22:13 56.78932 -133.03765 2265 ft 116 kts 92°
2026-05-04 22:14 56.78929 -133.02312 1934 ft 116 kts 81°
2026-05-04 22:14 56.79042 -133.00902 1573 ft 111 kts 77°
2026-05-04 22:14 56.79220 -132.99559 1228 ft 104 kts 69°
2026-05-04 22:14 56.79439 -132.98332 816 ft 99 kts 66°
2026-05-04 22:15 56.79665 -132.97169 461 ft 95 kts 65°
2026-05-04 22:15 56.79875 -132.96068 191 ft 87 kts 68°
2026-05-04 22:15 56.80047 -132.95151 118 ft 66 kts 66°
2026-05-04 22:15 56.80178 -132.94485 118 ft 48 kts 72°
2026-05-04 22:16 56.80272 -132.93972 118 ft 36 kts 71°
2026-05-04 22:16 56.80347 -132.93582 114 ft 32 kts 70°
2026-05-04 22:16 56.80422 -132.93372 116 ft 18 kts
2026-05-04 22:16 56.80502 -132.93413 116 ft 7 kts 340°
2026-05-04 22:17 56.80535 -132.93434 118 ft 4 kts 342°
2026-05-04 22:17 56.80556 -132.93363 118 ft 12 kts 70°
2026-05-04 22:17 56.80592 -132.93185 117 ft 12 kts 68°
2026-05-04 22:17 56.80624 -132.93117 117 ft 3 kts 313°
2026-05-04 22:18 56.80621 -132.93150 117 ft 0 kts 251°
2026-05-04 22:18 56.80621 -132.93153 117 ft 0 kts 249°